RH
88 90 96 98 94 92 89 88 90 89 87 91 87 84 82 77 69 69 65 63 65 66 66 68 73 72 69 67 69 75 80 88 85 92 93 91 82 79 79 81 79 77 77
88 89 94 96 98 94 91 91 89 88 86 86 81 76 70 73 66 69 65 64 67 69 68 68 72 69 72 72 72 76 89 88 86 86 92 95 88 86 80 82 75 78 77
93 90 91 96 96 97 98 91 89 87 84 81 82 82 86 95 93 80 73 72 71 73 72 67 72 73 69 73 77 79 81 81 94 82 88 96 95 94 90 84 82 80 82
85 86 88 92 95 96 97 97 94 88 86 84 85 84 86 81 66 68 68 73 72 75 77 74 72 74 73 76 80 79 82 84 92 92 83 89 87 94 94 89 87 83 80
87 90 90 89 89 91 96 96 96 96 86 88 84 86 84 71 69 83 88 79 81 76 75 74 76 79 76 76 80 83 80 82 91 89 91 90 91 90 93 94 92 90 86
86 88 86 84 89 90 92 94 95 96 94 90 85 85 84 78 80 85 85 83 84 85 79 76 73 74 78 81 81 81 80 82 88 87 87 85 83 88 92 95 93 91 86
89 89 91 91 91 92 92 90 93 94 96 96 87 86 85 83 84 82 80 82 87 88 88 80 78 77 75 76 77 79 82 84 85 88 88 85 85 84 86 88 94 91 91
89 90 92 90 92 92 92 94 93 94 94 97 97 87 88 87 84 78 75 78 81 80 83 80 80 79 81 79 80 80 80 89 90 89 88 87 85 85 84 85 90 93 93
92 93 91 92 92 93 93 95 96 93 94 97 97 96 90 90 87 81 76 77 78 80 86 84 85 86 82 81 83 83 84 89 92 92 92 90 89 86 86 83 83 86 94
90 92 91 93 90 92 93 89 93 97 96 94 96 95 97 93 83 84 81 77 81 83 89 85 85 86 85 86 85 87 87 85 93 94 93 93 93 92 93 91 88 87 87
93 94 92 94 92 91 92 92 92 95 96 97 94 96 96 97 97 86 84 79 82 87 88 83 84 84 86 87 86 87 87 88 90 93 93 93 92 95 95 95 94 94 93
95 94 95 92 94 91 90 92 92 93 96 96 98 96 93 94 98 98 90 83 85 87 86 85 84 81 82 84 85 88 86 87 93 93 95 92 93 94 95 96 95 94 94
94 94 92 93 94 94 91 89 91 92 93 96 96 98 99 94 95 95 96 96 90 87 84 86 86 86 84 87 87 86 87 88 87 90 92 91 95 96 97 96 97 96 96
94 94 93 94 94 95 94 92 90 92 91 92 95 96 98 99 95 95 94 96 97 97 92 88 86 85 87 86 87 89 90 91 92 92 92 93 94 94 95 96 96 96 97
91 92 94 94 94 94 93 93 91 93 93 92 94 96 96 96 92 92 95 95 96 98 94 95 91 90 91 92 91 91 90 90 93 94 93 91 94 96 94 95 96 97 97
89 89 86 84 85 91 93 94 94 95 95 93 94 94 93 95 97 93 91 94 96 96 99 96 95 97 97 100 97 92 91 91 91 93 93 90 98 96 97 96 96 94 96
84 85 86 88 75 63 86 95 96 95 95 95 95 93 93 93 96 97 95 94 94 95 96 98 97 97 97 98 99 99 94 91 89 92 94 96 95 96 90 96 97 98 96
83 82 87 87 58 47 48 91 92 93 94 95 94 94 94 93 94 96 97 96 96 94 96 96 98 97 95 95 96 99 97 96 94 92 91 92 93 91 93 94 95 94 95
83 88 71 79 50 46 44 47 71 90 90 93 94 95 96 96 94 95 96 97 97 97 96 95 97 97 97 95 95 94 97 99 98 96 93 92 91 93 97 95 97 96 96
52 57 54 48 48 46 43 46 49 56 78 81 91 94 96 96 96 97 97 97 97 100 97 94 96 96 97 97 94 92 96 98 99 98 94 96 95 99 100 98 97 99 96
57 60 62 58 50 49 47 51 52 54 52 52 55 74 90 95 96 96 97 98 97 98 100 100 98 97 95 94 92 91 90 91 93 96 94 89 92 94 96 100 99 98 96
62 63 67 64 58 58 49 52 58 54 52 52 50 55 73 88 91 95 96 96 97 98 98 98 98 99 96 96 90 88 88 87 89 91 89 88 89 92 92 96 97 98 99
75 76 78 76 73 68 58 63 59 57 56 53 50 52 54 58 84 94 95 92 96 96 96 95 96 97 96 96 98 96 86 84 83 84 86 84 85 88 90 92 93 95 96
93 85 85 87 88 78 66 78 65 64 61 59 57 52 51 52 46 72 90 93 93 94 95 94 95 96 95 96 96 96 97 96 84 82 82 81 81 86 91 94 93 92 94
96 96 95 93 92 87 81 78 68 74 68 59 57 58 54 56 47 45 64 94 95 95 94 96 95 95 94 96 97 97 96 98 99 95 84 84 84 86 88 92 94 96 94
97 95 93 96 93 95 88 81 78 80 81 73 58 65 66 66 52 49 45 53 71 89 94 92 92 90 92 94 93 93 94 97 98 97 96 96 92 92 96 95 95 93 94
Wind_Speed
11 14 13 7 17 16 21 22 21 18 13 11 12 10 11 10 9 8 12 13 11 11 11 8 9 8 9 9 9 6 7 3 4 4 4 4 3 3 3 3 3 4 4
16 17 16 14 12 15 18 21 22 21 16 13 12 11 11 8 9 8 10 12 12 12 11 11 9 10 9 10 9 8 4 3 4 5 3 3 2 2 1 2 3 4 3
17 17 18 15 13 12 11 19 21 22 18 17 11 8 7 5 3 7 8 10 13 12 11 13 10 10 10 9 8 7 7 7 2 6 4 3 4 3 0 1 2 4 2
18 16 17 16 15 14 12 13 9 21 19 17 15 19 14 15 12 10 9 9 12 11 11 12 11 11 9 10 8 7 5 5 4 2 1 1 5 4 2 1 1 2 3
16 16 16 16 15 15 13 11 8 6 21 20 19 15 16 13 9 7 10 10 9 12 12 13 12 11 8 9 9 8 8 4 4 3 2 2 3 2 4 2 2 1 3
17 16 15 15 15 14 15 14 13 9 10 23 22 21 20 17 13 12 11 10 9 9 12 12 12 11 10 11 9 8 9 7 5 3 3 4 4 3 3 3 1 2 3
16 16 18 17 16 18 18 15 14 13 12 8 26 24 20 20 19 18 14 14 10 9 13 14 12 10 11 11 10 10 9 9 7 7 4 3 3 4 3 4 2 2 2
15 16 17 15 15 16 17 18 20 16 12 15 11 21 18 13 14 17 15 13 12 12 13 13 13 12 10 10 9 7 7 7 6 8 5 4 4 3 3 4 5 2 0
16 17 16 15 15 17 16 17 16 15 17 17 12 11 19 16 15 17 16 14 13 11 12 13 13 12 12 12 11 8 9 7 5 6 6 4 4 3 3 4 3 5 3
17 16 14 13 13 12 15 15 15 15 12 12 13 12 9 7 18 17 16 17 15 14 14 14 14 13 12 12 12 8 7 9 5 4 6 4 3 4 3 3 3 3 4
14 14 14 14 15 14 15 15 16 17 17 15 15 12 13 8 7 17 17 18 17 16 15 15 14 14 13 12 12 10 9 10 8 6 7 7 6 4 4 3 2 3 3
13 13 14 15 16 16 18 15 16 15 14 13 11 13 13 13 13 15 14 18 17 17 17 16 14 14 14 13 13 12 11 12 10 9 8 8 5 6 5 4 5 4 4
13 12 14 14 15 14 14 15 15 14 15 14 13 10 15 15 14 12 12 10 18 18 16 17 17 15 15 14 13 13 12 12 11 11 10 9 8 6 4 5 5 4 3
10 12 12 13 14 13 14 16 16 15 15 12 15 16 12 14 13 11 12 13 11 15 16 17 17 17 16 15 14 13 12 11 10 10 10 9 9 8 8 6 6 5 4
13 13 12 13 14 16 16 14 14 15 15 14 14 14 13 10 15 15 14 14 14 3 15 13 14 14 14 11 15 14 14 13 10 8 7 7 7 10 9 6 6 6 5
12 13 13 12 12 13 13 12 14 15 15 14 16 12 14 15 16 15 15 13 13 12 7 13 14 12 7 13 13 14 11 10 11 10 6 5 5 6 7 9 9 9 7
10 11 11 11 11 12 12 12 13 13 12 13 14 15 14 14 12 14 15 15 14 12 14 10 7 12 9 14 12 13 6 8 8 8 8 6 4 5 4 6 5 7 9
6 8 9 9 11 11 11 8 10 10 12 13 13 14 14 14 13 14 14 16 11 13 11 10 7 5 8 15 13 12 6 6 7 7 8 7 6 5 4 4 5 6 6
4 3 3 8 8 9 9 8 9 10 11 13 12 13 13 13 13 12 11 11 13 9 10 9 8 7 8 11 12 10 6 5 6 5 4 4 5 6 7 5 6 5 5
5 4 6 6 7 7 7 8 9 10 12 11 11 11 12 9 11 11 11 9 9 10 8 12 11 12 9 17 13 10 5 5 5 4 9 14 8 3 5 6 5 5 6
6 5 6 6 6 6 7 7 8 10 11 10 10 9 9 9 10 9 9 10 6 9 12 11 12 14 17 13 16 17 8 4 5 5 6 6 11 9 7 3 4 4 2
4 5 5 5 5 6 7 7 8 8 9 9 9 9 9 9 9 10 9 10 9 9 10 8 8 7 9 21 22 21 20 13 7 6 5 5 8 8 6 3 2 3 3
3 4 4 4 4 6 5 6 7 8 8 8 8 8 9 8 8 9 9 7 8 7 6 6 5 6 8 8 19 20 20 17 9 6 7 10 9 6 3 3 2 1 2
3 3 4 5 5 5 6 5 6 6 7 7 7 7 7 8 8 6 7 5 6 6 6 5 5 5 5 6 7 8 7 13 8 9 6 7 6 4 3 2 1 0 1
3 2 4 4 5 5 5 5 6 5 6 5 6 7 6 7 6 7 5 5 4 5 4 4 5 4 4 7 10 10 7 5 7 8 5 4 4 3 3 2 3 4 4
3 3 5 4 5 4 5 6 5 4 5 5 5 5 4 5 6 5 5 8 11 13 9 8 6 3 7 10 11 10 10 11 11 2 2 4 4 3 4 5 5 5 6
Wind_Direction
9 16 4 334 159 178 170 169 165 168 163 163 162 167 168 164 167 168 168 170 165 162 160 156 151 144 147 151 147 131 126 96 116 99 71 51 89 129 142 142 146 164 169
16 10 10 11 20 180 181 176 175 172 173 173 174 176 170 169 164 163 163 165 160 161 158 156 157 153 149 152 154 143 127 116 162 139 112 108 40 39 192 160 171 167 159
5 5 4 7 8 12 335 183 178 174 175 176 165 156 131 99 102 158 162 167 161 159 154 157 157 155 152 160 160 153 141 158 181 159 134 121 179 142 320 214 204 174 175
1 6 3 357 4 356 344 341 222 179 177 172 171 169 168 168 182 179 166 163 162 156 154 154 158 157 155 162 164 158 152 142 157 120 114 73 137 154 133 318 223 194 209
360 360 1 352 355 357 348 333 326 265 174 174 176 174 174 182 165 153 151 161 161 160 165 163 161 161 161 164 164 168 159 150 141 142 153 117 74 91 126 155 245 318 233
358 360 360 354 358 0 360 348 340 354 251 176 178 182 179 177 167 161 167 172 170 167 169 169 171 168 165 166 169 169 168 168 148 156 160 159 155 167 135 122 159 177 251
3 0 360 358 359 2 359 345 340 357 347 296 174 183 183 177 179 171 172 171 172 175 178 172 174 176 174 172 169 174 172 170 173 171 180 161 158 135 132 117 146 150 259
5 5 356 358 3 0 1 352 353 355 1 359 308 176 182 184 181 182 174 178 181 182 175 176 175 175 170 172 170 173 176 168 169 175 176 171 166 148 143 144 142 84 7
6 1 360 2 360 6 354 356 351 359 5 353 353 348 181 179 182 184 177 180 178 176 174 176 174 170 172 173 172 173 170 166 171 180 173 165 175 164 146 140 147 145 168
6 2 360 2 9 6 358 356 1 352 10 342 8 3 294 205 181 179 178 179 178 174 171 175 176 175 174 172 172 174 171 172 177 174 179 184 169 171 157 149 150 142 149
5 358 358 1 6 0 7 359 4 359 358 1 12 332 351 360 349 179 180 183 176 174 174 179 177 179 180 178 179 178 173 182 180 176 185 192 171 179 173 156 153 161 152
7 355 355 2 9 7 13 1 4 357 6 350 360 351 348 20 48 357 201 182 177 175 175 178 182 185 186 182 182 179 184 184 181 185 185 195 181 191 180 171 183 182 185
1 354 1 4 4 7 5 3 16 3 4 355 357 335 6 20 23 354 347 235 171 170 179 181 183 188 188 186 187 187 183 188 189 185 189 197 176 190 177 177 182 188 169
349 359 1 3 9 3 352 9 3 4 11 340 21 357 354 17 19 350 358 342 170 161 186 187 186 189 189 188 186 188 186 187 188 186 189 189 184 191 188 182 190 187 179
360 3 359 5 6 359 358 0 6 0 2 358 20 358 355 2 30 359 13 352 38 251 184 184 185 183 182 182 184 184 185 182 176 167 175 185 183 191 185 175 190 176 184
357 359 359 9 6 357 353 352 8 4 359 357 12 1 359 10 23 1 3 12 24 18 350 176 160 146 143 151 159 174 170 161 160 158 156 144 173 193 209 194 181 180 184
348 351 358 358 0 5 360 356 2 358 352 3 5 6 1 19 8 20 356 24 3 16 2 353 137 132 122 128 136 128 149 155 160 165 154 147 148 181 200 211 211 207 203
332 344 349 351 360 356 359 11 357 354 1 7 10 1 4 7 12 20 359 17 355 25 359 6 351 77 111 103 105 115 125 136 146 146 146 158 171 181 171 181 199 214 210
276 274 346 2 350 356 356 7 10 1 6 6 3 3 358 9 12 15 2 19 360 15 355 8 334 53 31 73 101 115 108 111 119 114 121 155 184 197 190 193 207 201 231
334 354 353 10 1 356 355 6 9 12 12 1 359 2 355 11 9 6 351 9 10 2 9 5 29 14 48 44 53 84 102 103 111 133 88 60 57 64 145 191 201 216 232
337 19 11 3 357 353 360 10 15 11 357 350 357 13 3 6 8 10 3 359 13 32 32 21 24 13 33 39 57 57 70 83 88 75 99 63 48 32 31 209 201 204 169
349 5 9 359 356 348 4 3 15 357 350 349 4 8 19 13 7 1 14 5 2 42 49 28 23 18 20 26 36 50 55 57 71 73 58 54 35 30 4 360 104 91 134
357 355 353 344 349 355 4 2 357 356 348 360 360 10 7 19 14 5 5 11 11 21 31 45 37 13 17 16 20 25 36 40 58 44 31 16 6 26 18 13 335 78 126
324 338 344 326 327 341 348 343 353 353 344 352 355 357 12 17 7 24 360 356 6 22 20 13 37 27 16 10 17 11 5 24 17 14 14 347 355 24 16 342 305 70 122
289 318 291 291 291 321 317 327 340 343 350 349 355 359 17 3 12 17 9 350 341 27 28 4 18 19 11 19 11 6 351 2 359 353 356 360 359 8 18 12 19 33 31
253 268 270 272 283 280 299 315 322 332 336 337 357 340 15 0 15 9 354 6 21 28 38 33 34 25 23 13 4 354 351 358 344 343 356 359 338 346 42 41 34 30 26